DateTimeUTC,F1_A11,F1_S11,BsB_S11,BsG_S11,BsR_S11,BbsB_S11,BbsG_S11,BbsR_S11,BaB_A11,BaG_A11,BaR_A11,Tu_S11,T_S11,Uu_S11,U_S11,P_S11,T1_A11
2021-02-03T12:00:00Z,00000200,21000000,,,,,,,-000.29,-000.52,-000.09,15.4,22.9,,00.0,0632.3,30.8
2021-02-03T12:01:00Z,00000200,21000000,,,,,,,0000.25,0000.15,-000.09,15.4,22.9,,00.0,0632.3,30.8
2021-02-03T12:02:00Z,00000200,21000000,,,,,,,-000.22,0000.09,-000.34,15.3,22.9,,00.0,0632.3,30.8
2021-02-03T12:03:00Z,00000200,61000000,,,,,,,0000.45,0000.21,0000.99,15.3,22.9,,00.0,0632.3,30.8
2021-02-03T12:04:00Z,00000200,41000000,0000.02,0000.00,0000.16,0000.33,0000.02,0000.28,0000.14,0000.25,-000.46,15.7,22.7,,00.0,0633.1,30.8
2021-02-03T12:05:00Z,00000200,01000000,-000.07,0000.06,0000.02,0000.07,0000.23,-000.03,0000.21,0000.04,0000.11,15.8,22.7,,00.0,0633.1,30.8
2021-02-03T12:06:00Z,00000200,01000000,0000.08,0000.39,0000.21,0000.78,-000.07,0000.12,-000.14,0000.62,0000.39,15.8,22.7,,00.0,0633.1,30.9
2021-02-03T12:07:00Z,00000200,01000000,-000.23,0000.07,0000.10,0000.32,-000.15,-000.09,0000.23,-000.31,-000.09,15.9,22.7,,00.0,0633.3,30.9
2021-02-03T12:08:00Z,00000200,01000000,-000.06,-000.03,-000.14,-000.02,-000.07,0000.08,-000.07,-000.16,0000.19,16.0,22.8,,00.0,0633.5,30.9
2021-02-03T12:09:00Z,00000200,01000000,0000.15,0000.14,-000.00,0000.32,0000.07,-000.05,-000.36,-000.17,-000.37,16.0,22.8,,00.0,0633.6,30.9
2021-02-03T12:10:00Z,00000200,01000000,0000.25,-000.10,-000.06,0000.17,0000.09,0000.13,-000.13,-000.32,0000.01,16.1,22.8,,00.0,0633.6,30.9
2021-02-03T12:11:00Z,00000200,01000000,-000.10,-000.06,0000.05,0000.14,-000.01,0000.02,-000.45,-000.01,-000.13,16.1,22.8,,00.0,0633.7,30.9
2021-02-03T12:12:00Z,00000200,01000000,0000.23,0000.08,0000.22,0000.33,-000.13,0000.13,-000.24,-000.45,-000.61,16.0,22.8,,00.0,0633.7,30.9
2021-02-03T12:13:00Z,00000200,01000000,0000.15,0000.27,0000.27,0000.13,-000.10,0000.34,-000.07,0000.08,0000.26,15.9,22.7,,00.0,0633.7,30.8
2021-02-03T12:14:00Z,00000200,01000000,0000.17,0000.10,0000.19,0000.16,0000.31,-000.05,0000.19,0000.04,-000.23,15.9,22.7,,00.0,0633.6,30.8
2021-02-03T12:15:00Z,00000200,01000000,-000.05,-000.01,0000.05,-000.11,0000.08,0000.01,-000.23,-000.36,0000.06,15.8,22.7,,00.0,0633.6,30.8
2021-02-03T12:16:00Z,00000200,01000000,0000.12,-000.10,0000.17,0000.14,0000.03,0000.05,0000.27,0000.12,0000.30,15.8,22.6,,00.0,0633.5,30.8
2021-02-03T12:17:00Z,00000200,01000000,-000.01,0000.05,-000.15,-000.06,-000.04,0000.14,0000.34,0000.39,0000.27,15.8,22.6,,00.0,0633.5,30.8
2021-02-03T12:18:00Z,00000200,01000000,0000.29,0000.18,0000.17,0000.58,-000.01,0000.03,0000.47,0000.36,-000.21,15.8,22.6,,00.0,0633.5,30.8
2021-02-03T12:19:00Z,00000200,01000000,0000.18,-000.17,0000.06,-000.01,-000.04,0000.17,0000.19,0000.55,0000.23,15.9,22.7,,00.0,0633.5,30.8
2021-02-03T12:20:00Z,00000200,01000000,0000.05,0000.09,-000.23,0000.31,0000.04,-000.01,0000.16,-000.57,0000.28,15.9,22.7,,00.0,0633.5,30.9
2021-02-03T12:21:00Z,00000200,01000000,0000.39,0000.11,0000.01,-000.31,-000.07,-000.04,0000.01,0000.53,0000.36,16.0,22.7,,00.0,0633.5,30.9
2021-02-03T12:22:00Z,00000200,01000000,0000.07,-000.14,0000.16,0000.33,-000.11,0000.27,-000.12,0000.00,-000.33,16.1,22.7,,00.0,0633.6,30.9
2021-02-03T12:23:00Z,00000200,01000000,0000.37,-000.14,0000.08,0000.38,-000.12,-000.10,0000.08,-000.25,0000.03,16.1,22.8,,00.0,0633.6,30.9
2021-02-03T12:24:00Z,00000200,01000000,0000.70,0000.15,0000.18,0000.22,0000.17,0000.02,-000.28,-000.19,-000.10,16.2,22.8,,00.0,0633.6,30.9
2021-02-03T12:25:00Z,00000200,01000000,0000.17,-000.16,0000.14,0000.13,0000.04,-000.03,0000.09,0000.30,-000.09,16.1,22.8,,00.0,0633.6,30.9
2021-02-03T12:26:00Z,00000200,01000000,0000.08,-000.16,-000.08,0000.06,-000.01,-000.11,0000.08,0000.04,0000.22,16.1,22.7,,00.0,0633.6,30.9
2021-02-03T12:27:00Z,00000200,01000000,0000.26,0000.15,-000.08,0000.07,0000.10,0000.10,0000.03,0000.09,-000.28,16.0,22.7,,00.0,0633.6,30.9
2021-02-03T12:28:00Z,00000200,01000000,-000.28,-000.09,-000.13,0000.06,-000.15,0000.03,-000.39,-000.50,-000.05,15.9,22.7,,00.0,0633.6,30.9
2021-02-03T12:29:00Z,00000200,01000000,-000.29,0000.13,-000.14,0000.24,-000.12,0000.08,-000.04,0000.13,0000.08,15.8,22.6,,00.0,0633.6,30.8
2021-02-03T12:30:00Z,00000200,01000000,0000.25,0000.30,-000.11,-000.02,0000.10,0000.09,0000.09,-000.41,-000.14,15.8,22.6,,00.0,0633.6,30.8
2021-02-03T12:31:00Z,00000200,01000000,0000.65,-000.07,0000.04,-000.10,-000.19,0000.10,0000.13,0000.37,0000.37,15.7,22.6,,00.0,0633.6,30.8
2021-02-03T12:32:00Z,00000200,01000000,0000.11,0000.40,0000.21,0000.25,0000.01,0000.23,0000.24,0000.36,-000.44,15.7,22.6,,00.0,0633.6,30.8
2021-02-03T12:33:00Z,00000200,01000000,-000.41,0000.14,0000.21,0000.10,-000.07,-000.17,0000.14,-000.05,0000.64,15.8,22.6,,00.0,0633.6,30.8
2021-02-03T12:34:00Z,00000200,01000000,0000.35,0000.01,-000.07,0000.47,-000.21,-000.14,0000.04,0000.33,0000.18,15.8,22.6,,00.0,0633.6,30.8
2021-02-03T12:35:00Z,00000200,01000000,-000.09,0000.03,-000.00,0000.35,-000.02,0000.17,0000.09,0000.43,-000.00,15.9,22.6,,00.0,0633.6,30.9
2021-02-03T12:36:00Z,00000200,01000000,-000.14,0000.09,-000.14,0000.06,0000.10,-000.09,0000.32,-000.24,0000.37,16.0,22.7,,00.0,0633.7,30.9
2021-02-03T12:37:00Z,00000200,01000000,0000.34,0000.02,-000.28,-000.29,0000.05,0000.06,0000.32,0000.42,-000.09,16.0,22.7,,00.0,0633.6,30.9
2021-02-03T12:38:00Z,00000200,01000000,-000.10,0000.11,0000.07,-000.07,0000.13,0000.04,-000.02,0000.21,-000.20,16.1,22.7,,00.0,0633.6,30.9
2021-02-03T12:39:00Z,00000200,01000000,-000.57,-000.03,0000.19,-000.22,-000.02,0000.08,-000.36,-000.21,0000.07,16.2,22.7,,00.0,0633.7,30.9
2021-02-03T12:40:00Z,00000200,01000000,0000.44,0000.09,0000.03,0000.52,-000.02,0000.07,0000.34,-000.13,0000.17,16.2,22.7,,00.0,0633.8,30.9
2021-02-03T12:41:00Z,00000200,01000000,0000.17,0000.08,-000.22,0000.37,0000.11,-000.26,-000.27,-000.38,-000.23,16.1,22.7,,00.0,0633.7,30.9
2021-02-03T12:42:00Z,00000200,01000000,-000.54,0000.13,0000.16,0000.01,-000.17,0000.11,0000.08,0000.24,0000.15,16.1,22.7,,00.0,0633.7,30.9
2021-02-03T12:43:00Z,00000200,01000000,0000.39,0000.00,0000.06,-000.33,0000.19,0000.08,-000.11,-000.16,-000.25,16.0,22.7,,00.0,0633.7,30.9
2021-02-03T12:44:00Z,00000200,01000000,-000.61,0000.02,-000.06,-000.30,-000.16,0000.10,0000.09,0000.29,0000.23,15.9,22.7,,00.0,0633.8,30.9
2021-02-03T12:45:00Z,00000200,01000000,0000.24,-000.25,-000.00,0000.63,0000.03,0000.02,-000.20,-000.43,-000.32,15.9,22.6,,00.0,0633.7,30.8
2021-02-03T12:46:00Z,00000200,01000000,-000.44,0000.02,0000.10,0000.64,-000.04,-000.13,0000.15,0000.13,-000.19,15.8,22.6,,00.0,0633.8,30.8
2021-02-03T12:47:00Z,00000200,01000000,-000.05,0000.13,0000.13,0000.59,-000.04,-000.16,0000.20,0000.25,0000.42,15.8,22.6,,00.0,0633.8,30.8
2021-02-03T12:48:00Z,00000200,01000000,-000.10,0000.10,0000.06,0000.29,0000.10,0000.16,0000.03,0000.31,0000.14,15.9,22.6,,00.0,0633.9,30.8
2021-02-03T12:49:00Z,00000200,01000000,0000.16,-000.17,0000.03,0000.28,0000.09,0000.10,0000.04,0000.14,0000.00,15.9,22.6,,00.0,0633.9,30.8
2021-02-03T12:50:00Z,00000200,01000000,-000.10,0000.10,-000.06,-000.18,-000.12,-000.09,-000.20,-000.37,0000.12,16.0,22.7,,00.0,0633.9,30.9
2021-02-03T12:51:00Z,00000200,01000000,0000.02,-000.12,-000.08,0000.64,-000.07,0000.09,0000.23,0000.05,-000.00,16.1,22.7,,00.0,0634.0,30.9
2021-02-03T12:52:00Z,00000200,01000000,-000.55,0000.07,0000.15,0000.05,0000.06,0000.12,-000.14,0000.20,0000.13,16.1,22.7,,00.0,0634.0,30.9
2021-02-03T12:53:00Z,00000200,01000000,-000.05,0000.18,0000.28,0000.50,0000.06,0000.14,0000.03,0000.10,-000.29,16.2,22.7,,00.0,0633.9,30.9
2021-02-03T12:54:00Z,00000200,01000000,0000.13,-000.05,-000.27,0000.52,-000.09,-000.01,-000.16,-000.38,0000.23,16.2,22.8,,00.0,0633.8,30.9
2021-02-03T12:55:00Z,00000200,01000000,-000.10,-000.04,-000.29,0000.20,0000.06,0000.21,0000.19,0000.30,-000.15,16.2,22.8,,00.0,0633.9,30.9
2021-02-03T12:56:00Z,00000200,01000000,-000.39,-000.07,-000.05,0000.19,-000.04,0000.22,0000.31,-000.03,0000.08,16.2,22.8,,00.0,0633.9,30.9
2021-02-03T12:57:00Z,00000200,41000000,,,,,,,0000.20,0000.33,0000.19,16.2,22.8,,00.0,0634.0,30.9
2021-02-03T12:58:00Z,00000200,61000000,,,,,,,0000.04,-000.30,-000.10,15.6,22.9,,00.0,0633.1,30.9
2021-02-03T12:59:00Z,00000200,21000000,,,,,,,-000.63,0000.16,-000.13,15.6,23.0,,00.0,0633.1,30.8
